Araz Sadygov

Scout - Ravan
22 Feb 2028
Dienstag
Verarbeitung

Persönlichkeit

Anpassungsfähigkeit (1) Ehrgeiz (15) Kontroverse (8) Loyalität (19) Druck (20) Professionalität (13) Fairness (6) Temperament (18)

Profil

Trainerstil Demokratisch
Lizenz Kontinentale B
Entschlossenheit 7
Menschenführung 2
Motivation 6
Disziplin 2
Arbeitszufriedenheit
48%
Ermüdung
0%
Rolle Scout
Gehalt 7.9K p/W
Vertrag 14.03.2028

Leistung

Verhalten Gut
Trainingseffektivität
14%
Spielerentwicklung
30%
Verletzungsprävention
45%
Taktische Umsetzung
45%

Letzte Ereignisse

Vertragsverhandlung begonnen jetzt
Empfahl ein Transferziel 7T her
Vertragsverhandlung begonnen 7T her
Vertragsverhandlung begonnen 7T her
Vertragsverhandlung begonnen 7T her
Vertragsverhandlung begonnen 7T her
Vertragsverhandlung begonnen 7T her
Vertragsverhandlung begonnen 7T her

Aktuell beobachtet

86
Spieler Verein Status Fähigkeit Vertrauen Beobachtet Zuletzt beobachtet Letzte Stimme
Dimitrij Jafarov Gaziantep Bericht bereit 109 / 111 67% 1 01.01.2028 -
Brian Calderara Chacarita Juniors Aktiv 115 / 130 40% 4 29.12.2027 -
Valentín Serrano Arsenal Aktiv 112 / 115 40% 1 29.12.2027 -
Tomás Ferreyra Defensores Unidos Aktiv 88 / 99 40% 1 27.12.2027 -
Duvan Rangel La Equidad Aktiv 120 / 132 40% 1 27.12.2027 -
Franco Camargo Gimnasia y Esgrima Aktiv 91 / 126 40% 2 25.12.2027 -
Maximiliano Rueda Patronato Aktiv 117 / 101 40% 5 25.12.2027 -
Enzo Acosta Estudiantes Aktiv 117 / 121 40% 2 23.12.2027 -
Juan Rocca Gimnasia y Tiro Aktiv 133 / 126 40% 2 23.12.2027 -
Oscar Garrido Mitre Aktiv 98 / 100 40% 2 22.12.2027 -
Matías Ruiz Díaz Estudiantes Aktiv 109 / 100 40% 1 22.12.2027 -
Fernando Bersano Madryn Aktiv 132 / 101 40% 2 21.12.2027 -
Ramón González Almirante Brown Aktiv 93 / 104 40% 5 20.12.2027 -
Alejo Dramisino Atlanta Aktiv 126 / 134 40% 2 19.12.2027 -
Vagner Gonçalves Nogueira Kolkheti Aktiv 103 / 92 40% 1 17.12.2027 -
Lucas Carrizo Plaza Colonia Aktiv 115 / 101 40% 2 16.12.2027 -
Juan Esteban Ávalo Aguilas Doradas Aktiv 102 / 118 40% 1 16.12.2027 -
Salomon Chigoziem Nasarawa United Aktiv 107 / 97 40% 1 12.12.2027 -
Nazareno Fernández Colombo Los Andes Aktiv 89 / 99 40% 1 11.12.2027 -
Thiago López Almagro Aktiv 112 / 115 40% 2 09.12.2027 -
David Veliz Güemes Aktiv 103 / 127 40% 4 09.12.2027 -
Federico Versaci Talleres Aktiv 128 / 120 40% 2 07.12.2027 -
Chidiebere Nwobodo Rangers International Aktiv 114 / 112 40% 2 06.12.2027 -
Gianluca Pugliese Güemes Aktiv 96 / 99 40% 3 06.12.2027 -
Juan Pablo Barinaga Patronato Aktiv 112 / 121 40% 4 04.12.2027 -
Facundo Taborda Racing Aktiv 111 / 107 40% 1 01.12.2027 -
Facundo Ardiles Estudiantes Aktiv 120 / 121 40% 2 30.11.2027 -
Axel Batista Quilmes Aktiv 98 / 127 40% 3 29.11.2027 -
Juan Pablo Gobetto Maipú Aktiv 86 / 91 40% 1 29.11.2027 -
Augusto Berrondo Tristán Suárez Aktiv 108 / 98 40% 4 28.11.2027 -
Gastón Moreyra Almirante Brown Aktiv 135 / 103 40% 5 26.11.2027 -
Nicolás Heiz Maipú Aktiv 92 / 92 40% 2 26.11.2027 -
Iñaki Larthirigoyen San Telmo Aktiv 125 / 116 40% 4 21.11.2027 -
Federico Bisanz Atlanta Aktiv 107 / 116 40% 2 20.11.2027 -
Gerónimo Tomasetti Temperley Aktiv 112 / 109 40% 1 17.11.2027 -
Thomas Ortega Quilmes Aktiv 129 / 113 40% 2 13.11.2027 -
Ezekiel Edidiong Enyimba Aktiv 100 / 75 40% 2 13.11.2027 -
Lautaro Disanto Defensores Unidos Aktiv 98 / 114 40% 1 09.11.2027 -
Matías Viguet Maipú Aktiv 129 / 114 40% 4 05.11.2027 -
Delfor Minervino Estudiantes Aktiv 100 / 109 40% 1 05.11.2027 -
Martín García Atlanta Aktiv 116 / 97 40% 1 03.11.2027 -
Franco Zicarelli Colegiales Aktiv 106 / 113 40% 1 03.11.2027 -
Abubakar Taheer Shooting Stars Aktiv 79 / 80 40% 3 02.11.2027 -
Joseph Atule Barau Aktiv 108 / 107 40% 2 01.11.2027 -
Estanislao Jara Madryn Aktiv 104 / 125 40% 2 31.10.2027 -
Damián Adín San Miguel Aktiv 109 / 108 40% 2 25.10.2027 -
Diego Gaitán Maipú Aktiv 104 / 97 40% 2 19.10.2027 -
Santiago Vera Almirante Brown Aktiv 128 / 120 40% 1 19.10.2027 -
Chisom Ngomere Kwara United Aktiv 111 / 90 40% 1 07.10.2027 -
Agustín Benítez Defensores Aktiv 100 / 96 40% 2 05.10.2027 -
Santiago Gutiérrez Alvarado Aktiv 121 / 103 40% 1 02.10.2027 -
Maximiliano Meléndez Chacarita Juniors Aktiv 119 / 130 40% 2 01.10.2027 -
Agustín Villalobos Godoy Cruz Aktiv 106 / 116 40% 1 30.09.2027 -
Tiago Banega Gimnasia y Tiro Aktiv 124 / 128 40% 1 25.09.2027 -
Facundo Nadalín San Martín SJ Aktiv 138 / 116 40% 1 22.09.2027 -
José Mercado Union Magdalena Aktiv 105 / 118 40% 1 22.09.2027 -
Julián Cosi Madryn Aktiv 131 / 126 40% 1 18.09.2027 -
Santiago Sala Güemes Aktiv 104 / 105 40% 5 17.09.2027 -
Enzo Martínez Almagro Aktiv 117 / 94 40% 1 17.09.2027 -
Gonzalo Gutiérrez San Martín Aktiv 106 / 121 40% 1 16.09.2027 -
Cristian Caicedo Estudiantes de Merida Aktiv 104 / 96 40% 1 14.09.2027 -
Francisco Funes Los Andes Aktiv 87 / 84 40% 1 13.09.2027 -
Facundo Castet Colón Aktiv 110 / 94 40% 1 07.09.2027 -
Fortune Bassey Djoliba Aktiv 102 / 124 40% 1 16.08.2027 -
Mohammad Alsalkhadi Damac Aktiv 130 / 115 40% 1 10.08.2027 -
Alessandro Galeandro Campobasso Aktiv 81 / 86 40% 2 04.08.2027 -
Víctor Guzmán Sporting CP Aktiv 87 / 121 40% 1 19.07.2027 -
Genaro Rossi San Martín SJ Aktiv 100 / 121 40% 1 28.06.2027 -
Ľubomír Tupta Neftchi Aktiv 122 / 115 40% 1 14.06.2027 -
Kimarni Smith Newport County Aktiv 92 / 96 40% 1 14.06.2027 -
Nikita Trapitsyn Zenit Aktiv 74 / 76 67% 1 01.06.2027 Befürworten
Pablo García Gijón Aktiv 91 / 98 40% 1 31.05.2027 -
Facundo González Yenisey Aktiv 88 / 79 40% 1 31.05.2027 -
Vasily Cherov Ufa Aktiv 98 / 117 40% 1 22.05.2027 -
Leo Goglichidze Rodina Aktiv 137 / 100 40% 1 18.05.2027 -
Ilja Vakhania Krasnodar Aktiv 101 / 105 40% 1 17.05.2027 -
Léo Cordeiro Ural Aktiv 101 / 96 40% 1 17.05.2027 -
Bojan Roganović Torpedo Moscow Aktiv 121 / 103 40% 1 16.05.2027 -
Matías Gómez Granada Aktiv 118 / 125 40% 1 15.05.2027 -
Sam Gale Gillingham Aktiv 95 / 117 40% 1 13.05.2027 -
Issa Djibrilla Zira Aktiv 121 / 106 40% 1 13.05.2027 -
Josh Dacres-Cogley Stockport County Aktiv 94 / 89 40% 2 12.05.2027 -
Darko Todorović Fakel Aktiv 131 / 100 40% 1 09.05.2027 -
Zane Albarus Cambridge United Aktiv 78 / 81 40% 1 09.05.2027 -
Pedro Bicalho Qarabag Aktiv 142 / 136 40% 1 06.05.2027 -
André Oliveira Porto Aktiv 98 / 97 40% 1 04.05.2027 -